Hickory, NC

2:08 AM EST on December 12, 2017 (GMT -0500)
Hickory Regional

Weather History for KHKY - October, 2010

Change the Weather History Date:

Saturday, October 23, 2010

  Actual Average Record
Temperature  
Mean Temperature 56 °F -  
Max Temperature 73 °F 68 °F 85 °F (1978)
Min Temperature 39 °F 44 °F 30 °F (1987)
Degree Days  
Heating Degree Days 9    
Growing Degree Days 6 (Base 50)    
Moisture  
Dew Point 40 °F    
Average Humidity 57    
Maximum Humidity 93    
Minimum Humidity 30    
Precipitation  
Precipitation 0.00 in - - ()
Sea Level Pressure  
Sea Level Pressure 30.24 in    
Wind  
Wind Speed 2 mph (SW)    
Max Wind Speed 7 mph    
Max Gust Speed -    
Visibility 10 miles    
Events      
Averages and records for this station are not official NWS values.
T = Trace of Precipitation, MM = Missing Value Source: NWS Daily Summary

Daily Weather History Graph

Daily Weather History Graph

Search for Another Location

Airport or City:

Trip Planner

Search our weather history database for the weather conditions in past years. The results will help you decide how hot, cold, wet, or windy it might be!

Date:

Astronomy

Oct. 23, 2010 Rise Set
Actual Time 7:39 AM EDT 6:40 PM EDT
Civil Twilight 7:13 AM EDT 7:06 PM EDT
Nautical Twilight 6:43 AM EDT 7:35 PM EDT
Astronomical Twilight 6:13 AM EDT 8:05 PM EDT
Moon 6:46 PM EDT (10/23) 8:14 AM EDT (10/23)
Length of Visible Light 11h 52m
Length of Day
11h 00m
Full, 100% of the Moon is Illuminated
Oct 23
Full
Oct 30
Last Quarter
Nov 6
New
Nov 13
First Quarter
Nov 21
Full

Hourly Weather History & Observations

Time (EDT) Temp. Windchill Dew Point Humidity Pressure Visibility Wind Dir Wind Speed Gust Speed Precip Events Conditions
12:53 AM 48.0 °F - 42.1 °F 80% 30.21 in 10.0 mi NW 3.5 mph - N/A   Clear
1:53 AM 46.9 °F - 39.0 °F 74% 30.21 in 10.0 mi Calm Calm - N/A   Clear
2:53 AM 45.0 °F 43.5 °F 37.9 °F 76% 30.22 in 10.0 mi NW 3.5 mph - N/A   Clear
4:53 AM 43.0 °F - 37.9 °F 82% 30.22 in 10.0 mi Calm Calm - N/A   Clear
5:53 AM 41.0 °F - 37.9 °F 89% 30.23 in 10.0 mi Calm Calm - N/A   Clear
6:53 AM 42.1 °F - 37.0 °F 82% 30.25 in 10.0 mi Calm Calm - N/A   Clear
7:53 AM 39.9 °F - 37.9 °F 93% 30.26 in 10.0 mi Calm Calm - N/A   Clear
8:53 AM 44.1 °F - 37.9 °F 79% 30.28 in 10.0 mi Calm Calm - N/A   Clear
9:53 AM 52.0 °F - 42.1 °F 69% 30.29 in 10.0 mi Calm Calm - N/A   Clear
10:53 AM 60.1 °F - 39.9 °F 47% 30.29 in 10.0 mi Calm Calm - N/A   Clear
11:53 AM 64.0 °F - 39.9 °F 41% 30.28 in 10.0 mi SW 5.8 mph - N/A   Clear
12:53 PM 68.0 °F - 41.0 °F 37% 30.26 in 10.0 mi South 3.5 mph - N/A   Clear
1:53 PM 71.1 °F - 39.9 °F 32% 30.24 in 10.0 mi Variable 6.9 mph - N/A   Clear
2:53 PM 72.0 °F - 39.9 °F 31% 30.21 in 10.0 mi Variable 3.5 mph - N/A   Clear
3:53 PM 73.0 °F - 39.9 °F 30% 30.20 in 10.0 mi Variable 3.5 mph - N/A   Clear
4:53 PM 72.0 °F - 41.0 °F 33% 30.21 in 10.0 mi Variable 4.6 mph - N/A   Clear
5:53 PM 70.0 °F - 39.9 °F 33% 30.21 in 10.0 mi South 5.8 mph - N/A   Clear
6:53 PM 64.9 °F - 41.0 °F 42% 30.22 in 10.0 mi South 4.6 mph - N/A   Clear
7:53 PM 60.1 °F - 42.1 °F 51% 30.24 in 10.0 mi South 3.5 mph - N/A   Clear
8:53 PM 59.0 °F - 42.1 °F 53% 30.24 in 10.0 mi SSW 4.6 mph - N/A   Clear
9:53 PM 59.0 °F - 41.0 °F 51% 30.23 in 10.0 mi SSW 4.6 mph - N/A   Clear
10:53 PM 60.1 °F - 41.0 °F 49% 30.23 in 10.0 mi SW 3.5 mph - N/A   Clear
11:53 PM 57.0 °F - 42.1 °F 57% 30.23 in 10.0 mi Calm Calm - N/A   Clear